When you browse on this site, cookies collect data to enhance your experience and personalize the content and advertising you see.
Visit our Privacy Policy to learn more. By continuing to use the site, you agree to this use of cookies and data.
  • In Romania
  • List of Countries
  • For 7 days
  • Water Temperature
  • Weather Map
  • Weather Widgets
  • user-avatar
    Login

    Hourly Weather Skarżysko-Kamienna

    Today, 14 November, Thursday

    Time Temperature Precipitation Wind Pressure Humidity
    00:00 +11°C° 0.1 mm 4 mps 732 mmHg 83%
    01:00 +8°C° 0 mm 4 mps 733 mmHg 84%
    02:00 +9°C° 0.5 mm 3 mps 733 mmHg 86%
    03:00 +8°C° 0.5 mm 3 mps 734 mmHg 88%
    04:00 +7°C° 0.5 mm 2 mps 734 mmHg 89%
    05:00 +7°C° 0.2 mm 2 mps 735 mmHg 88%
    06:00 +5°C° 0.2 mm 3 mps 736 mmHg 88%
    07:00 +5°C° 0.2 mm 3 mps 737 mmHg 87%
    08:00 +7°C° 0 mm 2 mps 737 mmHg 84%
    09:00 +8°C° 0 mm 1 mps 738 mmHg 81%
    10:00 +8°C° 0 mm 1 mps 738 mmHg 78%
    11:00 +9°C° 0 mm 1 mps 739 mmHg 76%
    12:00 +9°C° 0 mm 1 mps 739 mmHg 75%
    13:00 +9°C° 0 mm 2 mps 739 mmHg 73%
    14:00 +8°C° 0 mm 2 mps 739 mmHg 76%
    15:00 +8°C° 0 mm 2 mps 739 mmHg 80%
    16:00 +7°C° 0 mm 2 mps 739 mmHg 83%
    17:00 +7°C° 0 mm 2 mps 739 mmHg 85%
    18:00 +7°C° 0 mm 2 mps 739 mmHg 87%
    19:00 +6°C° 0 mm 2 mps 739 mmHg 89%
    20:00 +6°C° 0 mm 2 mps 739 mmHg 91%
    21:00 +6°C° 0 mm 2 mps 739 mmHg 92%
    22:00 +6°C° 0 mm 2 mps 739 mmHg 94%
    23:00 +7°C° 0 mm 2 mps 739 mmHg 95%

    Tomorrow, 15 November, Friday

    Time Temperature Precipitation Wind Pressure Humidity
    00:00 +7°C° 0 mm 2 mps 739 mmHg 96%
    01:00 +7°C° 0 mm 2 mps 739 mmHg 97%
    02:00 +8°C° 0 mm 3 mps 739 mmHg 97%
    03:00 +9°C° 0 mm 3 mps 738 mmHg 97%
    04:00 +9°C° 0 mm 3 mps 738 mmHg 97%
    05:00 +9°C° 0 mm 3 mps 738 mmHg 97%
    06:00 +9°C° 0 mm 3 mps 738 mmHg 96%
    07:00 +9°C° 0 mm 3 mps 738 mmHg 96%
    08:00 +10°C° 0 mm 3 mps 739 mmHg 93%
    09:00 +10°C° 0 mm 4 mps 739 mmHg 90%
    10:00 +11°C° 0 mm 4 mps 739 mmHg 86%
    11:00 +12°C° 0 mm 4 mps 739 mmHg 84%
    12:00 +12°C° 0 mm 4 mps 739 mmHg 81%
    13:00 +13°C° 0 mm 4 mps 739 mmHg 79%
    14:00 +12°C° 0 mm 4 mps 738 mmHg 83%
    15:00 +11°C° 0 mm 3 mps 738 mmHg 86%
    16:00 +10°C° 0 mm 3 mps 738 mmHg 90%
    17:00 +10°C° 0 mm 3 mps 738 mmHg 91%
    18:00 +10°C° 0 mm 4 mps 738 mmHg 91%
    19:00 +10°C° 0 mm 4 mps 739 mmHg 92%
    20:00 +10°C° 0 mm 4 mps 739 mmHg 91%
    21:00 +9°C° 0 mm 5 mps 739 mmHg 90%
    22:00 +9°C° 0 mm 5 mps 739 mmHg 90%
    23:00 +9°C° 0 mm 5 mps 739 mmHg 89%

    Day after tomorrow, 16 November, Saturday

    Time Temperature Precipitation Wind Pressure Humidity
    00:00 +9°C° 0 mm 5 mps 739 mmHg 89%
    01:00 +9°C° 0 mm 5 mps 739 mmHg 88%
    02:00 +10°C° 0 mm 4 mps 739 mmHg 89%
    03:00 +10°C° 0 mm 4 mps 738 mmHg 90%
    04:00 +8°C° 0 mm 4 mps 738 mmHg 90%
    05:00 +10°C° 0 mm 4 mps 738 mmHg 88%
    06:00 +9°C° 0 mm 5 mps 738 mmHg 85%
    07:00 +9°C° 0 mm 6 mps 738 mmHg 82%
    08:00 +10°C° 0 mm 6 mps 738 mmHg 78%
    09:00 +11°C° 0 mm 6 mps 738 mmHg 73%
    10:00 +12°C° 0 mm 7 mps 738 mmHg 69%
    11:00 +14°C° 0 mm 7 mps 738 mmHg 66%
    12:00 +15°C° 0 mm 7 mps 738 mmHg 63%
    13:00 +16°C° 0 mm 8 mps 739 mmHg 60%
    14:00 +15°C° 0 mm 7 mps 739 mmHg 63%
    15:00 +14°C° 0 mm 7 mps 739 mmHg 66%
    16:00 +13°C° 0 mm 6 mps 739 mmHg 69%
    17:00 +13°C° 0 mm 6 mps 739 mmHg 72%
    18:00 +12°C° 0 mm 5 mps 740 mmHg 74%
    19:00 +12°C° 0 mm 4 mps 740 mmHg 77%
    20:00 +11°C° 0 mm 3 mps 741 mmHg 79%
    21:00 +12°C° 0 mm 2 mps 742 mmHg 82%
    22:00 +11°C° 0 mm 1 mps 742 mmHg 84%
    23:00 +11°C° 0 mm 1 mps 742 mmHg 84%

    17 November, Sunday

    Time Temperature Precipitation Wind Pressure Humidity
    00:00 +11°C° 0 mm 1 mps 742 mmHg 85%
    01:00 +10°C° 0 mm 0 mps 743 mmHg 85%
    02:00 +11°C° 0 mm 1 mps 742 mmHg 86%
    03:00 +10°C° 0 mm 1 mps 742 mmHg 88%
    04:00 +9°C° 0 mm 2 mps 742 mmHg 90%
    05:00 +9°C° 0 mm 2 mps 742 mmHg 90%
    06:00 +9°C° 0 mm 2 mps 742 mmHg 90%
    07:00 +9°C° 0 mm 2 mps 742 mmHg 90%
    08:00 +10°C° 0 mm 2 mps 742 mmHg 82%
    09:00 +12°C° 0 mm 3 mps 742 mmHg 74%
    10:00 +13°C° 0 mm 4 mps 742 mmHg 65%
    11:00 +14°C° 0 mm 3 mps 742 mmHg 62%
    12:00 +16°C° 0 mm 3 mps 742 mmHg 59%
    13:00 +17°C° 0 mm 3 mps 742 mmHg 56%
    14:00 +14°C° 0 mm 3 mps 741 mmHg 62%
    15:00 +13°C° 0 mm 3 mps 741 mmHg 68%
    16:00 +12°C° 0 mm 3 mps 740 mmHg 73%
    17:00 +11°C° 0 mm 3 mps 740 mmHg 75%
    18:00 +11°C° 0 mm 3 mps 740 mmHg 76%
    19:00 +10°C° 0 mm 3 mps 740 mmHg 78%
    20:00 +10°C° 0 mm 3 mps 740 mmHg 78%
    21:00 +10°C° 0 mm 3 mps 740 mmHg 78%
    22:00 +10°C° 0 mm 3 mps 740 mmHg 78%
    23:00 +9°C° 0 mm 3 mps 739 mmHg 78%

    18 November, Monday

    Time Temperature Precipitation Wind Pressure Humidity
    00:00 +9°C° 0 mm 3 mps 739 mmHg 78%
    01:00 +9°C° 0 mm 3 mps 739 mmHg 77%
    02:00 +9°C° 0 mm 3 mps 738 mmHg 77%
    03:00 +8°C° 0 mm 3 mps 738 mmHg 77%
    04:00 +8°C° 0 mm 3 mps 737 mmHg 77%
    05:00 +7°C° 0 mm 4 mps 737 mmHg 77%
    06:00 +7°C° 0 mm 4 mps 737 mmHg 78%
    07:00 +7°C° 0 mm 4 mps 737 mmHg 78%
    08:00 +8°C° 0 mm 4 mps 737 mmHg 73%
    09:00 +10°C° 0 mm 5 mps 737 mmHg 68%
    10:00 +12°C° 0 mm 5 mps 737 mmHg 63%
    11:00 +12°C° 0 mm 5 mps 737 mmHg 61%
    12:00 +13°C° 0 mm 4 mps 736 mmHg 59%
    13:00 +14°C° 0 mm 4 mps 736 mmHg 57%
    14:00 +13°C° 0 mm 4 mps 736 mmHg 60%
    15:00 +12°C° 0 mm 4 mps 736 mmHg 63%
    16:00 +12°C° 0 mm 4 mps 736 mmHg 67%
    17:00 +11°C° 0 mm 4 mps 736 mmHg 69%
    18:00 +11°C° 0 mm 4 mps 736 mmHg 72%
    19:00 +11°C° 0 mm 4 mps 736 mmHg 74%
    20:00 +10°C° 0 mm 4 mps 737 mmHg 76%
    21:00 +9°C° 0 mm 3 mps 737 mmHg 78%
    22:00 +9°C° 0 mm 2 mps 738 mmHg 79%
    23:00 +8°C° 0 mm 2 mps 738 mmHg 81%

    19 November, Tuesday

    Time Temperature Precipitation Wind Pressure Humidity
    00:00 +8°C° 0 mm 2 mps 739 mmHg 83%
    01:00 +8°C° 0 mm 2 mps 739 mmHg 84%
    02:00 +7°C° 0 mm 2 mps 739 mmHg 82%
    03:00 +7°C° 0 mm 2 mps 739 mmHg 79%
    04:00 +7°C° 0 mm 2 mps 739 mmHg 76%
    05:00 +7°C° 0 mm 2 mps 740 mmHg 77%
    06:00 +7°C° 0 mm 2 mps 740 mmHg 77%
    07:00 +6°C° 0 mm 2 mps 740 mmHg 77%
    08:00 +8°C° 0 mm 2 mps 740 mmHg 74%
    09:00 +9°C° 0 mm 2 mps 741 mmHg 72%
    10:00 +10°C° 0 mm 2 mps 741 mmHg 69%
    11:00 +12°C° 0 mm 2 mps 741 mmHg 67%
    12:00 +12°C° 0 mm 2 mps 741 mmHg 66%
    13:00 +13°C° 0 mm 2 mps 740 mmHg 65%
    14:00 +12°C° 0 mm 2 mps 740 mmHg 69%
    15:00 +12°C° 0 mm 2 mps 740 mmHg 73%
    16:00 +10°C° 0 mm 2 mps 740 mmHg 77%
    17:00 +10°C° 0 mm 2 mps 740 mmHg 79%
    18:00 +9°C° 0 mm 2 mps 740 mmHg 80%
    19:00 +9°C° 0 mm 2 mps 740 mmHg 81%
    20:00 +9°C° 0 mm 2 mps 740 mmHg 82%
    21:00 +8°C° 0 mm 2 mps 740 mmHg 84%
    22:00 +8°C° 0 mm 3 mps 740 mmHg 86%
    23:00 +8°C° 0 mm 3 mps 740 mmHg 86%
    Show more